Вернуться в каталог

STARLINK-31742

АктивенСвязьVLEO
NORAD 59499·PAYLOAD·🇺🇸 United States

Запущен Apr 13, 2024 с Cape Canaveral Space Force Station

Loading…

Ближайшие Пролёты (ближайшие 24 часа)

TLE

СвежийSource: CelesTrak SupGP

Эпоха: Sep 15, 2026, 01:59 UTC

1 59499C 24071R   26258.08312500  .00030166  00000+0  10924-2 0  2583
2 59499  43.0023 349.9394 0001539 264.9657  83.1339 15.27570548    10

Отслеживайте STARLINK-31742 в реальном времени с AllMySat

Download on the App Store